loading
DOY 175 | 2024-06-23T11:44:55Z

THOR ABLESTAR DEB, 131

Orbit data source: Space-Track

THOR ABLESTAR DEB, 131 is space debris in LEO originally from a launch on Thu, 29 Jun 1961 UTC launched from the Air Force Eastern Test Range (AFETR). Debris objects in space refer to the collection of defunct objects orbiting the Earth. Examples of debris include non-operational satellites, rocket bodies, and fragments generated from explosions, collisions, or faulty payload assembly.

Loading next visibility...
Loading greatness...
THOR ABLESTAR DEB details
NORAD ID131
COSPAR ID
1961-015R
Orbit
LEO
Last TLE update13 hours ago
Origin
Flag of USUSAF SSD (US)
ManufacturerUnknown
BusUnknown
MotorUnknown
MassWet unknown, Dry mass unknown
Launch date (UTC)
1961-06-29 (63 years ago)
Launch vehicleUnknown
Launch site
Air Force Eastern Test Range (AFETR)
Object type
Payload
Rocket body
Debris
Radar Cross SectionMedium (>0.1 m² and <1 m²)
Predictive object data (real-time)
Latitude39.14759°
Longitude8.93968°
Altitude884.538 km
Speed7.419 km/s
Apparent Right ascension14h 41m 06s
Apparent Declination4° 18' 58"
Sunlit
Object is in daylight
Predictive observer data (real-time)
Local Sidereal Time22:52:59
Azimuth295.886° NW
Elevation-21.589°
Doppler factor1
Orbital elements
Apogee949.839 km
Perigee825.855 km
Semi-major axis7,265.984 km
Eccentricity0.0085318
Inclination66.7348°
RAAN108.7498°
Arg. of periapsis218.6695°
True anomaly141.4386°
Mean anomaly140.8261°
Mean motion3.5043 °/min
BSTAR0.00014099
Period102.73 mins
Definitive object data (Epoch: 2024-06-22T23:06:01.043Z)
Latitude-0.00005°
Longitude-149.37289°
Altitude939.819 km
Speed7.358 km/s
True Right ascension07h 14m 59s
True Declination0° 00' 00"
Sunlit
Object was in daylight at TLE epoch
TLE from 13 hours ago
0 THOR ABLESTAR DEB
1 00131U 61015R   24174.96251208  .00000140  00000-0  14099-3 0  9990
2 00131  66.7348 108.7498 0085318 218.6695 140.8261 14.01254405201977
Epoch: 2024-06-22T23:06Z
No data available

THOR ABLESTAR DEB Visibility forecast

Observer location: 39.9160978°, -105.1181434, 0m alt.

THOR ABLESTAR DEB is not visible in the next 10 days
Span
Click to sort rows by Start time (UTC) header in descending order
Start Az.
Max El. time (UTC)
Max El. Az.
Max El.
End time (UTC)
End Az.